CW8209 Weather Reports


Display with metric or nautical units.
time (UTC)temp
F
wind
direction
speed
MPH
gust
MPH
rain 1hr
in
rain 24hr
in
rain mn
in
humidity
%
barometer
mb
20260503220325 50 142 6.0 11.0 0.01 0.05 0.05 76 1005.8
20260503215825 50 160 7.0 14.0 0.02 0.05 0.05 76 1005.8
20260503215328 50 133 6.0 14.0 0.02 0.05 0.05 76 1005.9
20260503214826 50 134 7.0 15.0 0.02 0.05 0.05 76 1005.9
20260503214331 50 167 7.0 15.0 0.02 0.05 0.05 77 1005.9
20260503213830 50 178 6.0 12.0 0.02 0.05 0.05 77 1005.9
20260503213336 50 360 6.0 16.0 0.02 0.05 0.05 77 1006.0
20260503212836 49 164 9.0 16.0 0.02 0.05 0.05 78 1005.8
20260503212339 49 188 8.0 17.0 0.01 0.04 0.04 80 1005.8
20260503211838 48 360 5.0 13.0 0.01 0.04 0.04 81 1005.9
20260503211401 48 178 7.0 14.0 0.01 0.04 0.04 81 1006.0
20260503210900 48 173 10.0 17.0 0.01 0.04 0.04 81 1006.2
20260503210342 48 360 11.0 17.0 0.01 0.04 0.04 81 1006.2
20260503205840 49 360 12.0 16.0 0.00 0.03 0.03 80 1006.1
20260503205327 49 146 9.0 18.0 0.00 0.03 0.03 80 1006.1
20260503204825 49 160 9.0 18.0 0.00 0.03 0.03 81 1006.1
20260503204349 49 360 10.0 18.0 0.00 0.03 0.03 80 1006.1
20260503203828 49 154 12.0 22.0 0.00 0.03 0.03 81 1006.1
20260503203352 49 154 14.0 22.0 0.00 0.03 0.03 80 1006.0
20260503202829 49 155 11.0 19.0 0.00 0.03 0.03 81 1006.0
20260503202333 49 360 12.0 19.0 0.00 0.03 0.03 81 1006.0
20260503201833 49 144 11.0 17.0 0.00 0.03 0.03 82 1006.0
20260503201355 48 130 10.0 15.0 0.00 0.03 0.03 85 1006.1
20260503200829 48 145 10.0 15.0 0.00 0.03 0.03 86 1006.2
20260503200332 48 150 8.0 15.0 0.00 0.03 0.03 88 1006.3
20260503195832 47 173 8.0 12.0 0.01 0.03 0.03 89 1006.4
20260503195337 47 144 8.0 15.0 0.01 0.03 0.03 89 1006.4
20260503194835 46 165 7.0 15.0 0.01 0.03 0.03 90 1006.5
20260503194340 46 175 7.0 12.0 0.01 0.03 0.03 90 1006.6
20260503193838 46 153 8.0 12.0 0.02 0.03 0.03 90 1006.6
20260503193326 46 360 6.0 11.0 0.02 0.03 0.03 91 1006.8
20260503192825 46 360 5.0 11.0 0.03 0.03 0.03 90 1006.8
20260503192329 45 360 7.0 13.0 0.03 0.03 0.03 90 1006.9
20260503191828 45 360 9.0 15.0 0.03 0.03 0.03 90 1006.9
20260503191331 45 360 10.0 15.0 0.03 0.03 0.03 90 1007.1
20260503190831 45 360 6.0 11.0 0.03 0.03 0.03 90 1007.2
20260503190336 45 360 6.0 11.0 0.03 0.03 0.03 90 1007.3
20260503185833 45 360 7.0 11.0 0.02 0.02 0.02 90 1007.4
20260503185336 45 360 6.0 10.0 0.02 0.02 0.02 90 1007.5
20260503184834 45 360 8.0 10.0 0.02 0.02 0.02 89 1007.5
20260503184339 44 360 6.0 12.0 0.02 0.02 0.02 88 1007.7
20260503183824 44 360 7.0 12.0 0.01 0.01 0.01 87 1007.8
20260503183347 44 360 6.0 15.0 0.01 0.01 0.01 86 1008.0
20260503182859 44 360 8.0 17.0 0.00 0.00 0.00 84 1007.9
20260503182325 45 360 11.0 18.0 0.00 0.00 0.00 80 1008.1
20260503181901 47 360 6.0 15.0 0.00 0.00 0.00 77 1008.2
20260503181342 48 360 7.0 15.0 0.00 0.00 0.00 72 1008.1
20260503180840 50 360 9.0 14.0 0.00 0.00 0.00 65 1008.1
20260503180342 51 127 7.0 13.0 0.00 0.00 0.00 64 1008.0
20260503175900 51 360 7.0 14.0 0.00 0.00 0.00 63 1008.0
20260503175343 51 360 9.0 12.0 0.00 0.00 0.00 62 1007.9
20260503174842 51 171 5.0 12.0 0.00 0.00 0.00 63 1007.9
20260503174326 51 360 5.0 13.0 0.00 0.00 0.00 62 1008.0
20260503173843 51 150 8.0 14.0 0.00 0.00 0.00 61 1008.0
20260503173326 51 126 9.0 19.0 0.00 0.00 0.00 61 1008.1
20260503172904 51 127 10.0 19.0 0.00 0.00 0.00 58 1008.1
20260503172327 52 177 7.0 17.0 0.00 0.00 0.00 58 1008.1
20260503171825 53 182 7.0 17.0 0.00 0.00 0.00 60 1008.0
20260503171330 53 160 11.0 16.0 0.00 0.00 0.00 58 1008.1
20260503170851 53 113 10.0 17.0 0.00 0.00 0.00 59 1008.1
20260503170338 52 130 11.0 17.0 0.00 0.00 0.00 61 1008.1
20260503150826 49 142 11.0 17.0 0.00 0.00 0.00 59 1009.2
20260503150328 49 360 8.0 18.0 0.00 0.00 0.00 60 1009.2
20260503131325 46 105 7.0 11.0 0.00 0.00 0.00 64 1010.4
20260503130826 45 115 6.0 9.0 0.00 0.00 0.00 63 1010.4
20260503130349 45 101 7.0 9.0 0.00 0.00 0.00 60 1010.4
20260503110337 34 360 5.0 9.0 0.00 0.01 0.00 87 1011.0
20260503090335 32 360 3.0 4.0 0.00 0.01 0.00 86 1011.4
20260503081355 33 360 3.0 4.0 0.00 0.01 0.00 84 1011.8
20260503080852 33 360 3.0 4.0 0.00 0.01 0.00 84 1011.8
20260503080333 33 360 3.0 4.0 0.00 0.01 0.00 84 1011.9
20260503072829 33 360 3.0 6.0 0.00 0.01 0.00 80 1011.8
20260503072331 33 360 4.0 6.0 0.00 0.01 0.00 80 1011.7
20260503071830 33 360 4.0 8.0 0.00 0.01 0.00 79 1011.7
20260503071338 34 360 4.0 9.0 0.00 0.01 0.00 78 1011.7
20260503070835 34 360 4.0 9.0 0.00 0.01 0.00 78 1011.7
20260503070337 34 360 5.0 9.0 0.00 0.01 0.00 78 1011.7
20260503060338 34 360 4.0 8.0 0.00 0.01 0.00 76 1012.1
20260503054832 34 360 4.0 6.0 0.00 0.01 0.00 75 1012.3
20260503054336 33 360 4.0 6.0 0.00 0.01 0.00 75 1012.4
20260503053854 33 360 4.0 5.0 0.00 0.01 0.00 75 1012.4
20260503053336 34 360 3.0 5.0 0.00 0.01 0.00 75 1012.5
20260503052836 33 360 4.0 5.0 0.00 0.01 0.00 75 1012.5
20260503052359 33 360 4.0 6.0 0.00 0.01 0.00 75 1012.6
20260503051837 33 360 4.0 6.0 0.00 0.01 0.00 75 1012.7
20260503051340 33 360 4.0 5.0 0.00 0.01 0.00 75 1012.8
20260503050839 33 360 4.0 5.0 0.00 0.01 0.00 75 1012.7
20260503050343 33 360 4.0 5.0 0.00 0.01 0.00 75 1012.8
20260503045841 33 360 4.0 5.0 0.00 0.01 0.00 75 1012.9
20260503045324 33 360 4.0 5.0 0.00 0.01 0.00 75 1013.0
20260503044900 33 360 4.0 5.0 0.00 0.01 0.00 76 1013.1
20260503044402 33 360 4.0 5.0 0.00 0.01 0.00 77 1013.1
20260503043840 33 360 4.0 5.0 0.00 0.01 0.01 78 1013.2
20260503043340 33 360 3.0 4.0 0.00 0.01 0.01 79 1013.3
20260503042840 33 360 3.0 4.0 0.00 0.01 0.01 80 1013.3
20260503042340 32 360 3.0 4.0 0.00 0.01 0.01 82 1013.4
20260503041856 32 360 2.0 3.0 0.00 0.01 0.01 81 1013.4
20260503041335 32 360 3.0 3.0 0.00 0.01 0.01 82 1013.4
20260503040845 32 360 2.0 4.0 0.00 0.01 0.01 81 1013.5
20260503040335 32 360 2.0 4.0 0.00 0.01 0.01 81 1013.5
20260503035831 32 360 4.0 5.0 0.00 0.01 0.01 81 1013.6
20260503035331 32 360 3.0 5.0 0.00 0.01 0.01 80 1013.6
20260503034830 32 360 4.0 4.0 0.00 0.01 0.01 79 1013.7
20260503034333 32 360 3.0 4.0 0.00 0.01 0.01 79 1013.7
20260503033831 32 360 3.0 4.0 0.00 0.01 0.01 79 1013.7
20260503033333 32 360 3.0 4.0 0.00 0.01 0.01 79 1013.8
20260503032832 32 360 3.0 4.0 0.00 0.01 0.01 79 1013.8
20260503032335 31 360 3.0 4.0 0.00 0.01 0.01 79 1013.9
20260503031854 32 360 3.0 4.0 0.00 0.01 0.01 79 1013.9
20260503031336 32 360 3.0 4.0 0.00 0.01 0.01 80 1013.9
20260503030835 32 360 3.0 4.0 0.00 0.01 0.01 83 1013.9
20260503030335 31 360 3.0 4.0 0.00 0.01 0.01 84 1013.9
20260503025831 31 360 3.0 4.0 0.00 0.01 0.01 85 1014.0
20260503025331 31 360 3.0 4.0 0.00 0.01 0.01 85 1014.1
20260503024827 32 360 3.0 4.0 0.00 0.01 0.01 85 1014.1
20260503024330 32 360 3.0 4.0 0.00 0.01 0.01 86 1014.2
20260503023829 31 360 3.0 4.0 0.00 0.01 0.01 85 1014.2
20260503023329 31 360 3.0 3.0 0.00 0.01 0.01 85 1014.3
20260503022826 32 360 3.0 3.0 0.00 0.01 0.01 85 1014.3
20260503022330 32 360 2.0 3.0 0.00 0.01 0.01 84 1014.3
20260503021846 32 360 2.0 3.0 0.00 0.01 0.01 84 1014.3
20260503021327 32 360 3.0 3.0 0.00 0.01 0.01 84 1014.3
20260503020826 32 360 3.0 3.0 0.00 0.01 0.01 84 1014.3
20260503020334 32 360 3.0 3.0 0.00 0.01 0.01 84 1014.3
20260503015832 32 360 3.0 3.0 0.00 0.01 0.01 83 1014.3
20260503015332 32 360 2.0 3.0 0.00 0.01 0.01 82 1014.3
20260503014827 32 360 3.0 3.0 0.00 0.01 0.01 82 1014.3
20260503014327 32 360 3.0 3.0 0.00 0.01 0.01 81 1014.3
20260503013843 32 360 2.0 3.0 0.00 0.01 0.01 79 1014.3
20260503013343 33 360 2.0 3.0 0.00 0.01 0.01 77 1014.2
20260503012837 34 360 2.0 4.0 0.00 0.01 0.01 76 1014.2
20260503012337 34 360 3.0 4.0 0.00 0.01 0.01 75 1014.2
20260503011833 34 360 3.0 4.0 0.00 0.01 0.01 74 1014.2
20260503011332 34 360 3.0 4.0 0.00 0.01 0.01 72 1014.2
20260503010832 35 360 3.0 4.0 0.00 0.01 0.01 70 1014.2
20260503010336 35 360 3.0 4.0 0.00 0.01 0.01 69 1014.3
20260503005834 35 360 3.0 4.0 0.00 0.01 0.01 67 1014.2
20260503005338 35 360 3.0 4.0 0.00 0.01 0.01 65 1014.2
20260503004838 36 360 3.0 4.0 0.00 0.01 0.01 63 1014.2
20260503004339 36 360 3.0 3.0 0.00 0.01 0.01 62 1014.2
20260503003834 37 360 3.0 3.0 0.00 0.01 0.01 60 1014.1
20260503003335 37 360 2.0 3.0 0.00 0.01 0.01 59 1014.1
20260503002831 38 360 2.0 3.0 0.00 0.01 0.01 58 1014.2
20260503002351 38 360 2.0 3.0 0.00 0.01 0.01 58 1014.1
20260503001826 39 360 2.0 3.0 0.00 0.01 0.01 58 1014.2
20260503001329 40 360 2.0 3.0 0.00 0.01 0.01 55 1014.1
20260503000824 40 188 0.0 2.0 0.00 0.01 0.01 54 1014.1
20260503000327 41 173 1.0 2.0 0.00 0.01 0.01 54 1014.1
20260502235845 42 180 0.0 1.0 0.00 0.01 0.01 56 1014.1
20260502235326 42 180 0.0 3.0 0.00 0.01 0.01 55 1014.1
20260502234826 42 188 1.0 4.0 0.00 0.01 0.01 52 1014.1
20260502234329 42 186 2.0 4.0 0.00 0.01 0.01 52 1014.2
20260502233830 42 186 2.0 5.0 0.00 0.01 0.01 49 1014.2
20260502233352 43 183 3.0 5.0 0.00 0.01 0.01 48 1014.2
20260502232827 43 178 3.0 5.0 0.00 0.01 0.01 47 1014.2
20260502232327 43 170 4.0 5.0 0.00 0.01 0.01 51 1014.3
20260502231827 43 168 3.0 4.0 0.00 0.01 0.01 50 1014.3
20260502231331 44 186 2.0 7.0 0.00 0.01 0.01 52 1014.3
20260502230825 43 157 3.0 7.0 0.00 0.01 0.01 52 1014.4
20260502230327 43 178 3.0 6.0 0.00 0.01 0.01 54 1014.4
20260502225901 43 168 3.0 6.0 0.00 0.01 0.01 54 1014.4
20260502225340 43 150 2.0 7.0 0.00 0.01 0.01 54 1014.4
20260502224837 43 215 3.0 7.0 0.00 0.01 0.01 54 1014.4
20260502224341 43 194 3.0 6.0 0.00 0.01 0.01 54 1014.5
20260502223840 43 194 3.0 7.0 0.00 0.01 0.01 56 1014.5
20260502223343 43 167 3.0 7.0 0.00 0.01 0.01 52 1014.6
20260502222843 43 203 4.0 7.0 0.00 0.01 0.01 53 1014.6
20260502222344 43 175 4.0 7.0 0.00 0.01 0.01 52 1014.6
20260502221826 43 177 3.0 5.0 0.00 0.01 0.01 53 1014.6
20260502221326 43 214 3.0 7.0 0.00 0.01 0.01 51 1014.6
20260502220845 43 360 3.0 10.0 0.00 0.01 0.01 52 1014.6